{"data":{"norad_id":59124,"epoch":"2026-05-25T04:38:24.370368Z","epoch_age_seconds":58013,"freshness":"FRESH","line1":"1 59124U 24043AC  26145.19333762  .00003947  00000+0  14513-3 0  9995","line2":"2 59124  97.5581 281.2390 0009892 335.8699  24.2076 15.28462892123479","mean_motion":15.28462892,"eccentricity":0.0009892,"inclination_deg":97.5581,"raan_deg":281.239,"arg_perigee_deg":335.8699,"mean_anomaly_deg":24.2076,"bstar":0.00014513,"rev_number":12347,"period_min":94.212297042799,"perigee_km":473.62220102769,"apogee_km":487.19114382923,"semimajor_km":6858.5436724285,"source":"CELESTRAK","updated_at":"2026-05-25T13:38:01.194296Z"}}